Williams-Sonoma PE Ratio 2006-2020 | WSM

Current and historical p/e ratio for Williams-Sonoma (WSM) from 2006 to 2020. The price to earnings ratio is calculated by taking the latest closing price and dividing it by the most recent earnings per share (EPS) number. The PE ratio is a simple way to assess whether a stock is over or under valued and is the most widely used valuation measure. Williams-Sonoma PE ratio as of December 01, 2020 is 15.21.

Please refer to the Stock Price Adjustment Guide for more information on our historical prices.

Williams-Sonoma PE Ratio Historical Data
Date Stock Price TTM Net EPS PE Ratio
2020-12-01 110.74 26.06
2020-10-31 91.21 $4.25 21.46
2020-07-31 86.65 $5.19 16.70
2020-04-30 61.16 $4.28 14.29
2020-01-31 68.71 $4.49 15.30
2019-10-31 65.07 $4.32 15.06
2019-07-31 64.51 $4.38 14.73
2019-04-30 54.92 $4.21 13.04
2019-01-31 51.84 $4.09 12.68
2018-10-31 56.09 $3.29 17.05
2018-07-31 54.84 $3.13 17.52
2018-04-30 44.51 $3.12 14.27
2018-01-31 47.29 $3.03 15.61
2017-10-31 47.29 $3.53 13.40
2017-07-31 42.23 $3.47 12.17
2017-04-30 48.74 $3.44 14.17
2017-01-31 43.17 $3.43 12.58
2016-10-31 41.07 $3.35 12.26
2016-07-31 47.68 $3.34 14.28
2016-04-30 51.47 $3.34 15.41
2016-01-31 44.97 $3.38 13.30
2015-10-31 63.77 $3.40 18.76
2015-07-31 72.85 $3.31 22.01
2015-04-30 63.00 $3.26 19.33
2015-01-31 66.74 $3.26 20.47
2014-10-31 55.23 $3.07 17.99
2014-07-31 56.68 $2.97 19.08
2014-04-30 52.84 $2.93 18.03
2014-01-31 45.61 $2.85 16.01
2013-10-31 43.62 $2.81 15.52
2013-07-31 48.68 $2.72 17.90
2013-04-30 44.16 $2.66 16.60
2013-01-31 35.98 $2.56 14.06
2012-10-31 37.62 $2.39 15.74
2012-07-31 28.14 $2.31 12.18
2012-04-30 31.13 $2.25 13.83
2012-01-31 28.69 $2.24 12.81
2011-10-31 29.84 $2.12 14.08
2011-07-31 29.30 $2.05 14.29
2011-04-30 34.20 $1.96 17.45
2011-01-31 25.27 $1.85 13.66
2010-10-31 25.28 $1.61 15.70
2010-07-31 20.77 $1.34 15.50
2010-04-30 22.27 $1.06 21.01
2010-01-31 14.61 $0.70 20.87
2009-10-31 14.37 $0.01 1437.19
2009-07-31 10.70 $-0.16 0.00
2009-04-30 10.56 $0.01 1056.11
2009-01-31 5.92 $0.29 20.42
2008-10-31 6.09 $1.32 4.62
2008-07-31 12.69 $1.67 7.60
2008-04-30 19.09 $1.73 11.03
2008-01-31 19.35 $1.79 10.81
2007-10-31 22.52 $1.70 13.25
2007-07-31 21.97 $1.70 12.92
2007-04-30 25.04 $1.77 14.15
2007-01-31 24.80 $1.81 13.70
2006-10-31 24.02 $1.77 13.57
Sector Industry Market Cap Revenue
Retail/Wholesale Retail - Home Furnishings $8.553B $5.898B
Williams-Sonoma, Inc. is a specialty retailer of high-quality products for the home. These products, representing eight distinct merchandise strategies - Williams Sonoma, Pottery Barn, Pottery Barn Kids, West Elm, PBteen, Williams Sonoma Home, Rejuvenation, and Mark and Graham - are marketed through e-commerce websites, direct mail catalogs and retail stores. Williams-Sonoma, Inc. portfolio has been fueled by three areas of strategic investment: brand experimentation and innovation, for a best-in-class approach to multi-channel retail experiences; operational excellence across the enterprise, from quality product and sourcing, to efficient manufacturing and supply chain; and culture and corporate social responsibility, from commitments to foster women in leadership and embrace diversity, to a healthy impact on community and environment. Williams-Sonoma, Inc. is one of the United States' largest e-commerce retailers with some of the best known and most beloved brands in home furnishings.
Stock Name Country Market Cap PE Ratio
RH (RH) United States $9.034B 36.51
Tempur Sealy (TPX) United States $5.274B 16.15
At Home Group (HOME) United States $1.230B 16.36
Haverty Furniture (HVT.A) $0.525B 30.66
Haverty Furniture (HVT) United States $0.514B 30.02
Ethan Allen Interiors (ETH) United States $0.467B 37.30
Lovesac (LOVE) United States $0.467B 0.00
Casper Sleep (CSPR) United States $0.264B 0.00
Kirkland's (KIRK) United States $0.211B 0.00